| time (UTC) | temp C | wind direction | speed KPH | gust KPH | rain 1hr cm | rain 24hr cm | rain mn cm | humidity % | barometer mb |
| 20260508095632 | 14 | 56 | 1.6 | 4.8 | 0.00 | 0.00 | 0.00 | 38 | 1027.8 |
| 20260508093710 | 14 | 330 | 1.6 | 4.8 | 0.00 | 0.00 | 0.00 | 41 | 1027.9 |
| 20260508091829 | 14 | 323 | 1.6 | 6.4 | 0.00 | 0.00 | 0.00 | 41 | 1027.9 |
| 20260508090124 | 13 | 33 | 1.6 | 4.8 | 0.00 | 0.00 | 0.00 | 41 | 1028.0 |
| 20260508084322 | 13 | 334 | 1.6 | 9.7 | 0.00 | 0.00 | 0.00 | 45 | 1028.0 |
| 20260508082439 | 12 | 312 | 1.6 | 6.4 | 0.00 | 0.00 | 0.00 | 44 | 1028.0 |
| 20260508080519 | 12 | 330 | 1.6 | 6.4 | 0.00 | 0.00 | 0.00 | 49 | 1028.0 |
| 20260508074544 | 11 | 25 | 1.6 | 4.8 | 0.00 | 0.00 | 0.00 | 49 | 1027.9 |
| 20260508072649 | 11 | 331 | 1.6 | 8.0 | 0.00 | 0.00 | 0.00 | 54 | 1027.7 |
| 20260508070729 | 10 | 346 | 1.6 | 4.8 | 0.00 | 0.00 | 0.00 | 56 | 1027.8 |
| 20260508064903 | 10 | 315 | 1.6 | 4.8 | 0.00 | 0.00 | 0.00 | 58 | 1027.8 |
| 20260508063009 | 8 | 326 | 1.6 | 4.8 | 0.00 | 0.00 | 0.00 | 62 | 1027.6 |
| 20260508061043 | 7 | 339 | 1.6 | 9.7 | 0.00 | 0.00 | 0.00 | 68 | 1027.4 |
| 20260508061040 | 7 | 339 | 1.6 | 9.7 | 0.00 | 0.00 | 0.00 | 68 | 1027.4 |
| 20260508061037 | 7 | 339 | 1.6 | 9.7 | 0.00 | 0.00 | 0.00 | 68 | 1027.4 |
| 20260508055329 | 5 | 45 | 0.0 | 3.2 | 0.00 | 0.00 | 0.00 | 74 | 1027.2 |
| 20260508053704 | 3 | 49 | 0.0 | 3.2 | 0.00 | 0.00 | 0.00 | 80 | 1026.9 |
| 20260508051731 | 2 | 14 | 0.0 | 3.2 | 0.00 | 0.00 | 0.00 | 81 | 1026.8 |
| 20260508045836 | 2 | 90 | 0.0 | 4.8 | 0.00 | 0.00 | 0.00 | 81 | 1026.8 |
| 20260508042049 | 1 | 225 | 0.0 | 3.2 | 0.00 | 0.00 | 0.00 | 83 | 1026.5 |
| 20260508040339 | 1 | 90 | 0.0 | 1.6 | 0.00 | 0.00 | 0.00 | 83 | 1026.2 |
| 20260508034514 | 0 | 90 | 0.0 | 3.2 | 0.00 | 0.00 | 0.00 | 84 | 1026.0 |
| 20260508032704 | 0 | 135 | 0.0 | 1.6 | 0.00 | 0.00 | 0.00 | 84 | 1025.9 |
| 20260508030829 | 0 | 130 | 0.0 | 3.2 | 0.00 | 0.00 | 0.00 | 85 | 1025.7 |
| 20260508024903 | 0 | 90 | 0.0 | 3.2 | 0.00 | 0.00 | 0.00 | 86 | 1025.5 |
| 20260508023304 | 0 | 90 | 0.0 | 3.2 | 0.00 | 0.00 | 0.00 | 82 | 1025.2 |
| 20260508023259 | 0 | 90 | 0.0 | 3.2 | 0.00 | 0.00 | 0.00 | 82 | 1025.2 |
| 20260508021529 | 0 | 90 | 0.0 | 3.2 | 0.00 | 0.00 | 0.00 | 82 | 1025.0 |
| 20260508015553 | 1 | 90 | 0.0 | 3.2 | 0.00 | 0.00 | 0.00 | 80 | 1024.8 |
| 20260508013748 | 1 | 90 | 0.0 | 3.2 | 0.00 | 0.00 | 0.00 | 79 | 1024.7 |
| 20260508012044 | 1 | 90 | 0.0 | 3.2 | 0.00 | 0.00 | 0.00 | 76 | 1024.4 |
| 20260508010444 | 1 | 90 | 0.0 | 3.2 | 0.00 | 0.00 | 0.00 | 76 | 1024.3 |
| 20260508004549 | 1 | 90 | 0.0 | 1.6 | 0.00 | 0.00 | 0.00 | 77 | 1024.1 |
| 20260508002815 | -17 | 90 | 0.0 | 3.2 | 0.00 | 0.00 | 0.00 | 76 | 1023.9 |
| 20260508002809 | 1 | 90 | 0.0 | 3.2 | 0.00 | 0.00 | 0.00 | 76 | 1023.9 |
| 20260508001204 | 1 | 101 | 1.6 | 3.2 | 0.00 | 0.00 | 0.00 | 76 | 1023.6 |
| 20260507235334 | 2 | 90 | 0.0 | 3.2 | 0.00 | 0.00 | 0.00 | 74 | 1023.4 |
| 20260507233359 | 3 | 90 | 0.0 | 3.2 | 0.00 | 0.00 | 0.00 | 71 | 1023.1 |
| 20260507231629 | 3 | 56 | 0.0 | 1.6 | 0.00 | 0.00 | 0.00 | 68 | 1023.0 |
| 20260507225804 | 4 | 90 | 0.0 | 3.2 | 0.00 | 0.00 | 0.00 | 67 | 1022.7 |
| 20260507223905 | 4 | 90 | 0.0 | 3.2 | 0.00 | 0.00 | 0.00 | 65 | 1022.4 |
| 20260507221909 | 5 | 56 | 0.0 | 1.6 | 0.00 | 0.00 | 0.00 | 64 | 1022.2 |
| 20260507220114 | 5 | 36 | 0.0 | 1.6 | 0.00 | 0.00 | 0.00 | 63 | 1022.1 |
| 20260507214449 | 5 | 90 | 0.0 | 1.6 | 0.00 | 0.00 | 0.00 | 62 | 1021.7 |
| 20260507212819 | 5 | 90 | 0.0 | 3.2 | 0.00 | 0.00 | 0.00 | 59 | 1021.5 |
| 20260507211009 | 5 | 90 | 1.6 | 4.8 | 0.00 | 0.00 | 0.00 | 58 | 1021.3 |
| 20260507205048 | 6 | 90 | 1.6 | 3.2 | 0.00 | 0.00 | 0.00 | 54 | 1021.1 |
| 20260507203159 | 6 | 90 | 1.6 | 3.2 | 0.00 | 0.00 | 0.00 | 52 | 1020.8 |
| 20260507201304 | 7 | 90 | 1.6 | 3.2 | 0.00 | 0.00 | 0.00 | 49 | 1020.6 |
| 20260507201259 | 7 | 90 | 1.6 | 3.2 | 0.00 | 0.00 | 0.00 | 49 | 1020.6 |
| 20260507195624 | 8 | 54 | 0.0 | 4.8 | 0.00 | 0.00 | 0.00 | 47 | 1020.1 |
| 20260507193749 | 8 | 49 | 0.0 | 3.2 | 0.00 | 0.00 | 0.00 | 45 | 1019.8 |
| 20260507191859 | 9 | 29 | 0.0 | 3.2 | 0.00 | 0.00 | 0.00 | 44 | 1019.5 |
| 20260507185929 | 10 | 354 | 0.0 | 4.8 | 0.00 | 0.00 | 0.00 | 44 | 1019.3 |
| 20260507184124 | 10 | 29 | 0.0 | 3.2 | 0.00 | 0.00 | 0.00 | 43 | 1019.2 |
| 20260507182454 | 11 | 23 | 1.6 | 8.0 | 0.00 | 0.00 | 0.00 | 40 | 1018.9 |
| 20260507182449 | 11 | 23 | 1.6 | 8.0 | 0.00 | 0.00 | 0.00 | 40 | 1018.9 |
| 20260507180729 | 12 | 48 | 1.6 | 4.8 | 0.00 | 0.00 | 0.00 | 37 | 1018.3 |
| 20260507174929 | 13 | 18 | 1.6 | 4.8 | 0.00 | 0.00 | 0.00 | 36 | 1018.0 |
| 20260507173329 | 14 | 356 | 1.6 | 6.4 | 0.00 | 0.00 | 0.00 | 36 | 1017.8 |
| 20260507171354 | 15 | 347 | 1.6 | 6.4 | 0.00 | 0.00 | 0.00 | 33 | 1017.4 |
| 20260507165524 | 15 | 90 | 0.0 | 3.2 | 0.00 | 0.00 | 0.00 | 33 | 1017.3 |
| 20260507163744 | 14 | 90 | 0.0 | 3.2 | 0.00 | 0.00 | 0.00 | 32 | 1017.2 |
| 20260507162048 | 14 | 9 | 0.0 | 3.2 | 0.00 | 0.00 | 0.00 | 33 | 1017.1 |
| 20260507160449 | 14 | 294 | 3.2 | 16.1 | 0.00 | 0.00 | 0.00 | 33 | 1017.0 |
| 20260507154844 | 13 | 299 | 1.6 | 8.0 | 0.00 | 0.00 | 0.00 | 31 | 1016.9 |
| 20260507153049 | 13 | 270 | 1.6 | 12.9 | 0.00 | 0.00 | 0.00 | 29 | 1016.9 |
| 20260507151249 | 13 | 270 | 3.2 | 6.4 | 0.00 | 0.00 | 0.00 | 33 | 1016.9 |
| 20260507145549 | 13 | 279 | 3.2 | 8.0 | 0.00 | 0.00 | 0.00 | 32 | 1016.9 |
| 20260507143859 | 13 | 299 | 1.6 | 9.7 | 0.00 | 0.00 | 0.00 | 33 | 1016.8 |
| 20260507143854 | 13 | 299 | 1.6 | 9.7 | 0.00 | 0.00 | 0.00 | 33 | 1016.8 |
| 20260507142223 | 13 | 270 | 3.2 | 9.7 | 0.00 | 0.00 | 0.00 | 34 | 1016.8 |
| 20260507142214 | 13 | 270 | 3.2 | 9.7 | 0.00 | 0.00 | 0.00 | 34 | 1016.8 |
| 20260507140559 | 13 | 64 | 1.6 | 4.8 | 0.00 | 0.00 | 0.00 | 31 | 1016.6 |
| 20260507134734 | 13 | 73 | 1.6 | 4.8 | 0.00 | 0.00 | 0.00 | 30 | 1016.7 |
| 20260507132844 | 13 | 284 | 3.2 | 8.0 | 0.00 | 0.00 | 0.00 | 34 | 1016.6 |
| 20260507131059 | 14 | 135 | 1.6 | 6.4 | 0.00 | 0.00 | 0.00 | 32 | 1016.7 |
| 20260507125429 | 14 | 285 | 1.6 | 6.4 | 0.00 | 0.00 | 0.00 | 31 | 1016.7 |
| 20260507123617 | 14 | 240 | 4.8 | 14.5 | 0.00 | 0.00 | 0.00 | 31 | 1016.7 |
| 20260507121834 | 15 | 270 | 3.2 | 8.0 | 0.00 | 0.00 | 0.00 | 30 | 1016.6 |
| 20260507120224 | 15 | 135 | 1.6 | 4.8 | 0.00 | 0.00 | 0.00 | 31 | 1016.6 |
| 20260507114439 | 15 | 171 | 0.0 | 3.2 | 0.00 | 0.00 | 0.00 | 32 | 1016.7 |
| 20260507112749 | 15 | 146 | 0.0 | 4.8 | 0.00 | 0.00 | 0.00 | 32 | 1016.7 |
| 20260507111039 | 14 | 270 | 0.0 | 4.8 | 0.00 | 0.00 | 0.00 | 33 | 1016.9 |
| 20260507105228 | 13 | 225 | 1.6 | 4.8 | 0.00 | 0.00 | 0.00 | 33 | 1017.0 |
| 20260507105223 | 13 | 225 | 1.6 | 4.8 | 0.00 | 0.00 | 0.00 | 33 | 1017.0 |
| 20260507103519 | 13 | 225 | 1.6 | 6.4 | 0.00 | 0.00 | 0.00 | 35 | 1016.9 |
| 20260507101544 | 13 | 235 | 3.2 | 12.9 | 0.00 | 0.00 | 0.00 | 36 | 1016.9 |